Temperature
19 19 19 19 19 19 18 18 18 18 18 18 18 18 18 18 18 18 18 18 18 18 18 18 18 18 18 18 18 18 18 18 18 18 18 18 18 18 18 18 18 18 18
19 19 19 19 19 19 18 18 18 18 18 18 18 18 18 18 18 18 18 18 18 18 18 18 18 18 18 18 18 18 18 18 18 18 18 18 18 18 18 18 17 17 17
19 19 19 19 19 19 18 18 18 18 18 18 18 18 18 18 18 19 18 18 18 18 18 18 18 18 18 18 18 18 18 18 18 18 18 18 18 18 18 18 18 18 17
19 19 19 19 19 19 19 18 18 18 18 18 18 18 18 18 18 19 19 18 18 18 18 18 18 18 18 18 18 18 18 18 18 18 18 18 18 18 18 18 18 17 17
19 19 19 19 19 19 18 18 18 18 18 18 18 18 18 18 18 19 19 18 18 18 18 18 18 18 18 18 18 18 18 18 18 18 18 18 18 18 18 18 18 17 17
19 19 19 19 19 19 19 19 19 19 18 18 18 18 18 18 18 18 18 18 18 18 18 18 18 18 18 18 18 18 18 18 18 18 18 18 18 18 18 18 18 17 17
20 19 20 19 19 19 19 19 19 19 18 18 18 18 18 18 18 18 18 18 18 18 18 18 18 18 18 18 18 18 18 18 18 18 18 18 18 18 18 18 17 17 17
20 20 20 20 19 19 19 19 19 19 19 18 18 18 18 18 18 18 18 18 18 18 18 18 18 18 18 18 19 19 18 18 18 18 18 18 18 18 18 18 17 17 17
21 20 20 19 19 19 19 19 19 19 19 19 19 19 18 18 18 18 18 18 18 18 18 18 18 18 18 19 19 19 18 18 18 18 18 18 18 18 18 18 17 17 17
21 20 20 19 19 19 19 19 19 19 19 19 19 19 18 18 18 18 18 18 18 18 19 19 19 19 19 19 19 19 18 18 18 18 18 18 18 18 18 18 18 17 17
21 21 20 20 19 19 19 19 19 19 19 19 19 18 18 18 18 18 18 18 18 18 18 18 19 19 19 19 19 19 19 18 18 18 18 18 18 18 18 18 18 17 17
21 21 20 20 20 19 19 19 19 19 18 18 18 18 18 18 18 18 18 18 18 18 18 18 18 18 18 18 18 19 19 18 18 18 18 18 18 18 18 18 17 17 17
21 21 20 20 20 19 19 19 19 19 19 18 18 18 18 18 18 18 18 18 18 18 18 18 18 18 18 18 18 18 18 18 18 18 18 18 18 18 18 18 17 17 17
21 21 20 20 20 19 19 19 19 19 19 19 18 18 18 18 18 18 18 18 18 18 18 18 18 18 18 18 18 18 18 18 18 18 18 18 18 18 18 17 17 17 17
21 21 20 20 19 19 19 19 19 19 19 19 18 18 18 18 18 18 18 18 18 18 18 18 18 18 18 18 18 18 18 18 18 18 18 18 18 18 18 17 17 17 17
21 21 20 20 20 19 19 19 19 19 19 18 18 18 18 18 18 18 18 18 18 18 18 18 18 18 18 18 18 18 18 18 18 18 18 18 17 17 17 17 17 17 17
21 21 20 20 19 19 19 19 19 19 19 19 19 18 18 18 18 18 18 18 18 18 18 18 18 18 18 18 18 18 18 18 18 17 17 17 17 17 17 17 17 17 17
21 21 20 20 20 19 19 19 19 19 19 19 19 18 18 18 18 18 18 18 18 18 18 18 18 18 18 18 18 18 18 18 17 17 17 17 17 17 17 17 17 17 17
21 21 20 20 20 19 19 19 19 19 19 19 18 18 18 18 18 18 18 18 19 18 18 18 18 18 18 18 18 18 18 18 17 17 17 17 17 17 17 17 17 17 16
21 21 20 20 20 19 19 19 19 19 19 19 19 19 18 18 18 18 19 19 19 19 18 18 18 18 18 18 18 18 18 18 18 17 17 17 17 16 16 16 16 16 16
21 21 20 20 20 20 19 19 19 19 19 19 19 19 18 18 18 19 19 19 19 19 19 18 18 18 18 18 18 18 18 17 17 17 17 17 17 16 16 16 16 16 16
22 21 20 20 20 20 20 19 19 19 19 19 19 19 18 18 18 18 19 19 19 18 18 18 18 18 18 18 18 18 17 17 17 17 17 17 17 16 16 16 16 16 16
22 21 21 20 20 20 20 19 19 19 19 19 19 19 19 18 18 18 19 19 18 18 18 18 18 18 18 18 18 18 18 17 17 17 17 16 16 16 16 16 16 16 15
22 21 21 21 20 20 20 20 19 19 19 19 19 19 19 19 19 19 18 18 18 18 18 18 18 18 18 18 18 18 18 18 17 17 16 16 16 16 16 16 15 15 15
23 22 21 21 20 20 20 20 20 20 19 19 19 19 19 19 19 19 18 18 18 18 18 18 18 18 18 18 18 18 18 18 18 17 16 16 16 16 16 15 15 15 15
23 22 21 21 21 20 20 20 20 20 19 19 19 19 19 19 19 19 19 18 18 18 18 18 18 18 18 18 18 18 18 18 18 18 17 16 16 16 15 15 15 15 15
Wind_Speed
7 9 11 12 12 11 11 12 12 11 11 11 11 11 11 12 12 13 14 15 16 16 16 16 16 16 17 17 17 17 17 17 17 17 17 17 16 15 14 14 14 14 16
9 11 13 12 12 12 11 11 11 11 11 10 10 11 11 12 12 13 14 15 15 16 16 16 16 17 16 16 16 16 16 16 16 16 17 16 15 14 13 13 14 14 15
11 12 13 12 12 12 11 11 11 11 10 11 11 11 12 12 13 13 14 14 15 16 16 16 16 16 16 16 15 14 14 14 14 15 15 13 14 14 14 15 15 15 15
12 12 12 12 12 12 11 11 11 11 11 11 12 13 14 13 13 13 14 14 15 16 16 16 16 15 15 14 13 12 12 12 12 12 9 11 13 14 14 14 14 14 14
13 14 14 13 12 12 12 11 11 11 11 12 13 14 14 13 13 14 14 15 15 15 16 16 15 15 14 13 11 10 10 10 9 7 7 11 13 14 14 13 13 13 13
14 14 14 13 12 12 12 11 12 12 12 12 13 14 14 14 14 14 15 15 15 15 15 15 14 14 13 11 10 8 8 7 5 6 9 13 13 14 13 13 13 12 12
14 14 14 13 13 12 12 13 13 13 13 13 14 14 14 14 13 14 14 14 14 15 14 14 13 13 12 10 9 7 6 5 4 6 8 13 13 15 14 13 12 12 12
14 14 14 14 13 12 13 13 13 13 13 14 14 14 14 14 13 13 13 14 14 14 13 13 12 12 10 9 7 5 4 3 5 8 11 13 16 16 14 13 12 12 12
13 14 13 13 12 12 13 13 13 12 12 13 13 13 13 13 13 12 12 13 13 13 12 12 12 11 10 8 6 4 3 2 2 6 11 12 16 15 14 13 12 12 11
12 11 11 12 12 12 12 12 12 12 11 11 12 12 12 13 13 12 12 12 11 11 12 12 11 10 9 8 6 4 3 1 2 6 8 12 16 15 14 13 12 11 11
10 9 9 11 10 10 12 12 11 11 10 9 9 10 9 8 10 10 11 11 11 10 10 10 9 8 8 7 7 5 3 2 4 7 9 13 15 14 13 12 11 11 10
8 8 9 9 8 8 9 9 8 8 9 7 7 7 7 6 8 10 11 11 10 9 8 8 8 7 6 6 7 5 3 3 5 9 10 14 14 13 13 11 10 10 9
7 8 9 9 7 7 6 6 5 6 7 6 7 6 6 6 7 7 7 7 7 7 6 7 7 6 5 4 5 5 4 4 6 8 11 14 14 13 12 11 10 9 9
7 8 9 10 8 7 6 4 4 5 5 5 6 6 5 3 3 3 3 4 5 4 3 3 4 4 3 3 4 3 3 5 7 9 10 13 12 11 10 9 9 8 7
8 9 10 9 8 7 5 3 5 4 5 6 5 5 5 3 3 3 3 2 2 3 4 2 2 3 3 3 3 3 4 6 7 7 9 11 11 10 9 8 8 7 6
8 9 9 9 8 6 4 3 3 3 5 6 5 6 6 5 3 3 2 1 1 2 4 2 2 2 2 3 3 3 4 5 6 8 8 9 10 10 9 7 7 6 6
9 8 8 9 8 6 4 2 3 3 5 5 5 6 5 5 4 3 2 1 1 3 4 3 2 2 2 3 3 3 4 5 5 6 8 8 8 8 8 7 7 6 5
10 8 6 7 9 7 4 2 2 3 4 4 4 5 5 5 4 2 2 2 2 2 3 2 2 2 2 3 3 3 3 4 5 5 6 8 8 7 7 7 6 6 5
9 8 6 6 7 6 5 3 3 3 3 2 4 4 4 3 3 2 1 2 2 2 2 2 3 2 2 2 3 3 3 3 3 4 5 6 7 8 8 7 7 6 6
10 8 7 7 6 5 4 3 3 3 3 3 3 3 3 2 3 1 2 2 1 1 2 2 3 2 2 2 2 4 3 3 3 3 4 4 6 7 7 7 6 5 5
11 9 8 7 6 4 3 3 3 3 3 2 3 4 3 2 2 1 2 1 1 2 2 2 2 1 2 3 3 2 2 3 3 3 3 3 4 5 7 7 6 5 4
11 10 9 8 7 5 4 3 2 2 3 3 2 3 3 2 1 2 2 1 2 1 2 2 2 1 1 2 2 2 2 2 2 3 3 3 3 4 5 6 7 6 5
12 11 9 9 8 7 6 4 3 3 1 2 3 3 2 2 2 2 3 2 1 2 2 2 2 2 1 1 1 1 1 1 2 1 2 3 3 2 3 5 6 5 4
12 11 9 9 8 7 6 5 5 4 3 3 3 3 3 2 2 2 2 2 1 1 1 1 2 1 1 1 1 1 1 2 2 2 1 2 3 3 2 3 5 6 7
13 12 10 9 8 7 6 5 3 3 3 3 4 4 3 2 2 2 2 2 1 1 1 0 1 1 0 1 1 1 1 1 2 2 2 2 2 2 2 3 4 5 7
12 12 12 10 8 7 6 5 4 3 2 3 4 4 3 3 2 3 3 2 1 1 1 1 1 1 1 1 1 1 0 1 2 2 2 3 3 2 3 3 4 5 6
Wind_Direction
87 93 88 80 75 75 76 78 78 80 84 87 92 96 98 96 97 99 100 100 103 104 105 106 106 108 108 108 111 113 114 112 110 111 111 110 111 112 111 116 120 113 116
100 102 94 84 80 76 76 79 79 81 83 86 93 99 101 102 102 101 101 102 104 106 107 106 107 108 109 110 112 115 118 117 118 120 119 116 116 116 112 109 109 118 119
102 101 95 86 83 79 76 78 79 80 82 87 91 96 99 103 103 103 103 104 105 108 108 107 108 109 109 111 114 118 122 126 129 132 132 124 121 117 113 112 113 119 120
100 98 92 91 87 82 79 79 79 80 85 89 93 97 99 101 103 103 103 105 107 108 109 109 110 110 110 112 116 122 128 132 138 144 145 129 125 122 120 119 119 121 122
101 100 96 93 88 85 83 81 80 85 88 90 98 100 99 100 103 104 105 107 108 108 109 111 111 111 111 112 116 124 133 139 149 150 125 114 113 126 126 126 126 126 126
106 104 104 100 93 88 86 83 86 86 91 94 100 103 101 99 101 104 107 108 109 108 109 111 111 112 112 114 118 128 142 151 165 143 123 117 120 131 132 133 131 131 131
110 110 112 105 99 94 90 90 91 89 92 95 98 103 103 99 101 104 107 110 110 110 111 113 115 114 115 119 123 128 141 157 165 139 119 116 127 134 135 134 135 136 136
111 111 115 111 106 102 99 96 94 93 94 98 98 103 105 103 102 106 109 110 111 112 115 118 119 120 122 126 131 136 149 170 131 119 113 118 132 136 136 135 137 140 139
110 114 123 123 117 113 110 104 101 98 99 102 102 104 107 108 108 110 113 114 113 115 119 122 124 127 129 132 142 159 174 200 115 118 121 127 134 137 138 139 139 140 142
107 113 124 126 129 131 123 116 113 108 106 111 110 113 116 115 115 119 117 115 117 121 125 128 133 139 145 153 165 181 210 254 142 109 116 131 138 140 143 144 145 147 149
102 109 114 117 128 131 125 124 130 123 118 119 120 123 128 129 125 124 118 122 124 128 133 138 145 153 158 170 183 196 214 215 122 106 113 132 138 142 145 147 148 153 156
107 111 105 102 103 110 113 129 139 128 125 126 116 120 131 116 114 115 123 130 135 138 143 154 162 168 183 186 183 195 205 168 110 110 119 132 136 140 144 146 148 157 165
111 107 106 99 93 96 99 116 114 116 122 122 114 111 116 114 118 120 132 137 150 159 168 160 174 185 186 171 155 168 172 133 105 108 121 132 136 139 143 148 155 165 174
111 106 103 101 91 72 70 86 104 104 113 111 114 114 113 112 107 116 129 139 158 163 163 152 166 151 141 127 120 123 114 105 111 116 129 135 136 140 146 154 162 169 180
115 107 99 97 91 81 64 36 81 84 96 104 114 115 116 105 94 95 84 96 130 138 138 129 114 109 99 88 88 100 97 102 106 113 127 138 139 143 150 156 162 172 174
124 115 112 112 110 103 97 71 68 86 99 104 107 109 109 111 104 101 103 98 111 108 104 116 120 114 106 104 95 86 96 98 109 118 126 130 135 139 142 148 153 161 166
127 121 124 123 120 115 117 118 107 101 103 99 104 112 111 113 122 131 136 145 140 150 141 137 122 113 131 122 105 94 95 97 107 118 131 134 137 141 144 144 145 149 162
129 127 130 125 124 124 120 103 84 92 93 100 115 114 115 119 141 156 155 143 143 148 138 137 136 122 100 103 105 101 104 108 115 123 124 135 139 137 138 142 143 141 146
133 136 130 117 126 133 138 132 116 108 101 113 112 109 116 136 145 152 119 116 170 152 124 125 118 106 104 111 115 123 119 114 113 117 118 121 131 133 136 138 141 138 134
142 141 139 138 135 143 141 135 129 119 126 127 120 122 126 135 127 129 129 117 111 101 101 93 115 140 136 121 95 94 105 118 119 111 108 106 112 120 123 131 139 135 131
150 149 152 152 144 152 149 148 155 147 145 134 131 126 133 129 123 126 84 115 111 110 110 117 122 134 132 126 111 91 82 86 93 101 97 97 97 105 110 119 133 125 124
153 154 156 160 163 172 158 146 152 136 151 140 116 120 133 134 160 146 111 115 101 111 119 132 136 130 176 155 144 135 125 107 56 83 99 104 96 105 120 122 118 117 118
159 164 170 166 167 175 165 167 154 136 168 131 135 137 129 111 97 77 114 119 99 118 127 150 163 171 198 247 126 141 145 133 124 87 79 94 104 98 97 104 111 113 111
164 165 160 159 162 166 171 182 182 173 167 149 142 144 139 129 134 142 131 135 120 110 117 211 147 230 175 229 235 194 155 143 150 142 115 114 115 111 110 105 100 101 100
165 164 159 154 158 162 175 183 193 185 169 153 143 142 148 157 156 145 140 138 131 136 135 69 83 299 229 238 256 215 158 156 152 157 167 165 140 138 136 112 104 104 105
165 163 161 157 161 166 177 185 191 198 162 153 158 162 174 171 166 159 149 152 164 146 142 187 212 216 226 286 302 291 221 186 181 153 158 162 153 154 143 133 127 117 112
Height
1496 1494 1494 1494 1493 1493 1493 1493 1493 1493 1494 1495 1495 1496 1497 1498 1500 1501 1502 1503 1505 1506 1508 1510 1511 1513 1515 1517 1519 1521 1523 1526 1528 1531 1533 1535 1536 1538 1540 1541 1543 1544 1546
1496 1495 1495 1495 1494 1494 1494 1494 1495 1495 1495 1496 1497 1498 1499 1500 1502 1503 1505 1506 1508 1509 1511 1512 1514 1515 1517 1519 1521 1523 1526 1528 1530 1532 1534 1536 1538 1540 1542 1543 1544 1546 1548
1496 1496 1496 1496 1496 1496 1496 1496 1496 1496 1497 1498 1499 1499 1500 1502 1504 1505 1507 1508 1510 1512 1513 1515 1516 1518 1520 1522 1524 1526 1528 1530 1532 1534 1536 1538 1540 1542 1544 1545 1546 1548 1549
1498 1498 1498 1498 1498 1498 1498 1498 1498 1498 1499 1499 1500 1501 1502 1504 1506 1507 1509 1511 1512 1514 1516 1517 1519 1520 1522 1524 1526 1528 1530 1532 1534 1536 1538 1540 1542 1543 1545 1546 1548 1549 1550
1500 1500 1500 1500 1500 1500 1500 1500 1499 1500 1500 1501 1502 1503 1505 1506 1508 1509 1511 1513 1515 1516 1518 1520 1521 1523 1524 1526 1527 1529 1531 1533 1536 1538 1540 1542 1543 1545 1546 1548 1549 1550 1552
1502 1502 1502 1502 1502 1502 1502 1501 1501 1501 1501 1502 1503 1505 1507 1509 1510 1512 1514 1515 1517 1519 1520 1522 1523 1525 1526 1528 1529 1530 1532 1535 1538 1540 1542 1543 1545 1546 1547 1549 1550 1551 1553
1505 1504 1504 1504 1504 1504 1504 1504 1504 1503 1503 1504 1506 1508 1509 1511 1513 1514 1516 1518 1519 1521 1522 1524 1526 1527 1528 1530 1531 1532 1533 1536 1539 1542 1544 1545 1546 1547 1548 1550 1551 1552 1553
1507 1507 1507 1507 1507 1507 1507 1507 1506 1506 1507 1508 1509 1510 1512 1514 1515 1517 1519 1520 1522 1523 1525 1526 1528 1529 1531 1532 1534 1535 1537 1538 1541 1543 1544 1545 1547 1548 1549 1550 1552 1553 1554
1510 1509 1509 1509 1510 1510 1510 1510 1510 1510 1510 1511 1512 1513 1515 1516 1518 1519 1521 1522 1524 1525 1526 1528 1529 1531 1533 1535 1536 1538 1539 1541 1542 1544 1545 1546 1548 1549 1550 1551 1552 1554 1555
1512 1513 1513 1513 1513 1512 1513 1513 1513 1514 1514 1515 1516 1517 1518 1519 1520 1521 1523 1524 1526 1527 1529 1530 1532 1534 1535 1537 1539 1540 1541 1542 1544 1545 1546 1547 1548 1549 1550 1552 1553 1554 1555
1515 1516 1516 1516 1516 1516 1516 1516 1517 1517 1518 1518 1519 1520 1521 1522 1523 1525 1526 1527 1528 1530 1531 1533 1534 1536 1538 1539 1541 1542 1543 1543 1545 1545 1546 1548 1549 1549 1551 1552 1553 1555 1556
1517 1518 1519 1519 1519 1519 1520 1520 1520 1520 1521 1521 1522 1523 1524 1525 1527 1528 1529 1530 1531 1532 1533 1535 1536 1537 1539 1540 1542 1543 1544 1545 1546 1546 1547 1549 1549 1549 1551 1552 1553 1555 1556
1519 1520 1521 1521 1522 1522 1522 1523 1523 1524 1524 1525 1525 1526 1527 1528 1529 1530 1531 1532 1533 1534 1535 1536 1537 1539 1540 1542 1543 1544 1545 1546 1546 1547 1548 1549 1550 1550 1551 1552 1553 1555 1556
1521 1522 1523 1523 1524 1524 1525 1525 1526 1526 1526 1527 1528 1528 1529 1530 1531 1532 1533 1533 1534 1535 1536 1538 1539 1541 1542 1543 1544 1545 1546 1547 1547 1548 1548 1549 1550 1550 1551 1552 1553 1554 1555
1522 1523 1524 1524 1525 1526 1526 1527 1528 1528 1528 1529 1529 1530 1531 1531 1532 1533 1534 1535 1536 1537 1538 1540 1541 1542 1543 1544 1545 1546 1547 1547 1548 1548 1549 1550 1550 1550 1551 1552 1552 1553 1554
1524 1525 1525 1526 1526 1527 1528 1528 1529 1530 1530 1530 1531 1531 1532 1533 1533 1534 1535 1536 1538 1539 1540 1541 1542 1543 1544 1544 1545 1546 1547 1547 1548 1548 1549 1549 1550 1551 1551 1552 1552 1553 1553
1524 1525 1526 1527 1527 1528 1529 1530 1531 1532 1532 1532 1532 1533 1534 1534 1535 1535 1537 1538 1539 1540 1541 1542 1543 1543 1544 1545 1546 1547 1547 1548 1548 1549 1549 1549 1549 1550 1551 1551 1552 1552 1553
1524 1526 1527 1528 1528 1529 1530 1531 1532 1533 1533 1534 1534 1535 1535 1535 1536 1537 1538 1539 1540 1541 1542 1542 1543 1544 1545 1545 1546 1547 1548 1548 1549 1549 1549 1549 1550 1550 1551 1551 1552 1552 1552
1524 1526 1527 1529 1529 1530 1531 1532 1533 1534 1534 1535 1536 1536 1536 1537 1538 1539 1539 1540 1541 1542 1542 1543 1544 1544 1545 1546 1547 1547 1548 1548 1549 1550 1550 1550 1550 1550 1551 1551 1551 1551 1551
1524 1526 1527 1529 1530 1531 1532 1533 1534 1535 1535 1536 1536 1537 1537 1538 1538 1539 1540 1540 1541 1542 1542 1543 1544 1545 1546 1546 1547 1547 1548 1549 1549 1550 1550 1550 1551 1551 1550 1550 1551 1551 1551
1523 1525 1527 1528 1529 1531 1532 1533 1534 1535 1536 1537 1537 1537 1538 1538 1539 1539 1540 1540 1541 1542 1542 1543 1544 1545 1546 1546 1547 1547 1548 1549 1549 1550 1550 1550 1551 1551 1550 1550 1550 1550 1550
1522 1524 1526 1528 1529 1530 1532 1533 1535 1536 1536 1537 1537 1537 1538 1538 1538 1540 1540 1540 1541 1542 1542 1543 1544 1544 1545 1546 1547 1547 1548 1550 1549 1550 1550 1550 1550 1550 1550 1550 1550 1550 1549
1521 1523 1525 1526 1528 1530 1531 1533 1535 1536 1537 1537 1538 1538 1538 1538 1539 1539 1540 1540 1541 1541 1542 1543 1543 1544 1545 1546 1546 1547 1547 1548 1549 1550 1550 1550 1550 1550 1550 1550 1549 1549 1548
1519 1521 1523 1525 1527 1529 1531 1533 1534 1535 1536 1537 1537 1537 1538 1538 1538 1539 1539 1540 1540 1541 1542 1543 1543 1544 1544 1544 1545 1546 1547 1547 1547 1548 1550 1549 1549 1549 1550 1549 1549 1548 1548
1518 1520 1522 1523 1526 1528 1530 1532 1533 1535 1536 1536 1537 1537 1538 1538 1538 1538 1539 1539 1540 1540 1541 1542 1542 1543 1543 1543 1544 1545 1545 1545 1546 1547 1547 1548 1548 1549 1549 1549 1548 1547 1547
1516 1519 1520 1522 1524 1526 1529 1531 1532 1534 1535 1536 1537 1537 1537 1538 1538 1538 1538 1539 1539 1540 1540 1541 1541 1542 1542 1543 1543 1544 1544 1544 1544 1545 1545 1546 1547 1548 1548 1548 1547 1547 1546